{"data":{"norad_id":65189,"epoch":"2026-09-20T21:44:12.107616Z","epoch_age_seconds":85231,"freshness":"FRESH","line1":"1 65189U 25175R   26263.90569569  .00011982  00000+0  37288-3 0  9998","line2":"2 65189  97.2827 132.8627 0001863  91.1343 269.0113 15.33444048 62190","mean_motion":15.33444048,"eccentricity":0.0001863,"inclination_deg":97.2827,"raan_deg":132.8627,"arg_perigee_deg":91.1343,"mean_anomaly_deg":269.0113,"bstar":0.00037288,"rev_number":6219,"period_min":93.90626295613,"perigee_km":464.27102881761,"apogee_km":466.82098510601,"semimajor_km":6843.6830069618,"source":"CELESTRAK","updated_at":"2026-09-21T09:00:35.530698Z"}}